📊 Raw Sensor Data

Showing records 50826 to 50850 of 85,139 total

ID Distance (ft) Battery V Battery A Int Temp (°F) Int Humid (%) Ext Temp (°F) Solar V RSSI SNR Time Stamp
34326 15.3 4.01 0 73 36 64 5.10 -74 8 03/07/2025 02:30 PM
34325 15.4 4.01 0 73 36 63 5.10 -75 7 03/07/2025 02:15 PM
34324 15.3 4.02 0 72 36 64 5.10 -74 7 03/07/2025 02:00 PM
34323 15.4 4.03 0 71 36 63 5.10 -74 8 03/07/2025 01:45 PM
34322 15.3 4.01 0 71 35 63 5.10 -73 8 03/07/2025 01:30 PM
34321 15.3 4.01 0 70 36 63 5.10 -74 8 03/07/2025 01:15 PM
34320 15.5 4.01 0 69 36 63 5.10 -75 8 03/07/2025 01:00 PM
34319 15.3 4.01 0 68 36 62 5.10 -74 8 03/07/2025 12:45 PM
34318 15.3 4.01 0 67 36 62 5.10 -73 7 03/07/2025 12:30 PM
34317 15.3 4.01 0 66 36 60 5.10 -73 8 03/07/2025 12:15 PM
34316 15.3 4.01 0 65 35 61 5.10 -71 8 03/07/2025 12:00 PM
34315 15.3 4.01 0 63 36 60 5.10 -74 8 03/07/2025 11:45 AM
34314 15.3 4.01 0 62 35 58 5.10 -73 8 03/07/2025 11:15 AM
34313 15.3 4.09 0 60 36 57 5.10 -73 8 03/07/2025 11:00 AM
34312 15.3 4.01 0 59 36 56 5.10 -74 7 03/07/2025 10:45 AM
34311 15.3 4.01 0 57 36 55 5.10 -72 8 03/07/2025 10:30 AM
34310 15.3 4.05 5 56 36 54 5.10 -72 8 03/07/2025 10:15 AM
34309 15.3 4.01 0 55 36 54 5.10 -75 8 03/07/2025 10:00 AM
34308 15.3 4.01 0 55 35 53 5.10 -76 8 03/07/2025 09:45 AM
34307 15.4 4.08 5 53 35 53 5.10 -74 8 03/07/2025 09:30 AM
34306 15.4 4.13 5 52 35 52 5.10 -72 8 03/07/2025 09:15 AM
34305 15.4 4.01 0 50 35 51 5.10 -74 8 03/07/2025 09:00 AM
34304 15.3 4.01 5 48 35 50 5.10 -74 8 03/07/2025 08:45 AM
34303 15.3 4.01 0 47 35 50 5.10 -73 8 03/07/2025 08:30 AM
34302 15.2 4.01 5 46 35 49 5.10 -74 7 03/07/2025 08:15 AM